| time (UTC) | temp C | wind direction | speed KPH | gust KPH | rain 1hr cm | rain 24hr cm | rain mn cm | humidity % | barometer mb |
| 20260507024030 | 5 | 337 | 3.2 | 6.4 | 0.00 | 0.00 | 0.00 | 93 | 1012.9 |
| 20260507022530 | 5 | 343 | 3.2 | 9.7 | 0.00 | 0.00 | 0.00 | 90 | 1012.8 |
| 20260507021029 | 5 | 339 | 6.4 | 9.7 | 0.00 | 0.00 | 0.00 | 91 | 1012.9 |
| 20260507015529 | 5 | 329 | 6.4 | 9.7 | 0.00 | 0.00 | 0.00 | 90 | 1012.8 |
| 20260507014029 | 6 | 332 | 6.4 | 9.7 | 0.00 | 0.00 | 0.00 | 90 | 1012.6 |
| 20260507012529 | 6 | 338 | 6.4 | 9.7 | 0.00 | 0.00 | 0.00 | 90 | 1012.5 |
| 20260507011028 | 6 | 339 | 6.4 | 9.7 | 0.00 | 0.00 | 0.00 | 90 | 1012.4 |
| 20260507005528 | 6 | 347 | 3.2 | 9.7 | 0.00 | 0.00 | 0.00 | 88 | 1012.4 |
| 20260507004028 | 6 | 341 | 3.2 | 9.7 | 0.00 | 0.00 | 0.00 | 88 | 1012.3 |
| 20260507002529 | 6 | 343 | 3.2 | 9.7 | 0.00 | 0.00 | 0.00 | 87 | 1012.3 |
| 20260507001028 | 6 | 338 | 3.2 | 9.7 | 0.00 | 0.00 | 0.00 | 86 | 1012.3 |
| 20260506235527 | 7 | 342 | 6.4 | 12.9 | 0.00 | 0.00 | 0.00 | 85 | 1012.2 |
| 20260506234027 | 7 | 340 | 6.4 | 12.9 | 0.00 | 0.00 | 0.00 | 85 | 1012.2 |
| 20260506232526 | 7 | 342 | 9.7 | 12.9 | 0.00 | 0.00 | 0.00 | 83 | 1012.1 |
| 20260506231025 | 7 | 340 | 6.4 | 12.9 | 0.00 | 0.00 | 0.00 | 83 | 1012.0 |
| 20260506225525 | 8 | 346 | 6.4 | 17.7 | 0.00 | 0.00 | 0.00 | 83 | 1012.0 |
| 20260506224025 | 8 | 333 | 9.7 | 17.7 | 0.00 | 0.00 | 0.00 | 81 | 1011.9 |
| 20260506222525 | 8 | 329 | 6.4 | 12.9 | 0.00 | 0.00 | 0.00 | 82 | 1011.9 |
| 20260506221025 | 7 | 333 | 3.2 | 6.4 | 0.00 | 0.00 | 0.00 | 83 | 1011.8 |
| 20260506215525 | 7 | 328 | 6.4 | 6.4 | 0.00 | 0.00 | 0.00 | 83 | 1011.7 |
| 20260506214025 | 8 | 332 | 6.4 | 6.4 | 0.00 | 0.00 | 0.00 | 81 | 1011.7 |
| 20260506212525 | 8 | 338 | 6.4 | 6.4 | 0.00 | 0.00 | 0.00 | 80 | 1011.6 |
| 20260506211025 | 8 | 346 | 3.2 | 9.7 | 0.00 | 0.00 | 0.00 | 80 | 1011.6 |
| 20260506205525 | 8 | 358 | 6.4 | 12.9 | 0.00 | 0.00 | 0.00 | 78 | 1011.6 |
| 20260506204024 | 8 | 11 | 9.7 | 17.7 | 0.00 | 0.00 | 0.00 | 76 | 1011.4 |
| 20260506202524 | 8 | 13 | 9.7 | 12.9 | 0.00 | 0.00 | 0.00 | 75 | 1011.4 |
| 20260506201024 | 8 | 7 | 9.7 | 17.7 | 0.00 | 0.00 | 0.00 | 75 | 1011.3 |
| 20260506195524 | 8 | 15 | 9.7 | 17.7 | 0.00 | 0.00 | 0.00 | 75 | 1011.1 |
| 20260506194023 | 8 | 16 | 9.7 | 17.7 | 0.00 | 0.00 | 0.00 | 74 | 1011.0 |
| 20260506192523 | 8 | 17 | 9.7 | 17.7 | 0.00 | 0.00 | 0.00 | 76 | 1010.9 |
| 20260506191023 | 8 | 23 | 6.4 | 12.9 | 0.00 | 0.00 | 0.00 | 78 | 1010.7 |
| 20260506185522 | 10 | 36 | 9.7 | 20.9 | 0.00 | 0.00 | 0.00 | 74 | 1010.5 |
| 20260506184022 | 10 | 33 | 9.7 | 20.9 | 0.00 | 0.00 | 0.00 | 74 | 1010.4 |
| 20260506182522 | 10 | 31 | 12.9 | 24.1 | 0.00 | 0.00 | 0.00 | 72 | 1010.2 |
| 20260506181021 | 10 | 43 | 12.9 | 24.1 | 0.00 | 0.00 | 0.00 | 70 | 1009.9 |
| 20260506175521 | 10 | 44 | 9.7 | 17.7 | 0.00 | 0.00 | 0.00 | 70 | 1009.8 |
| 20260506174021 | 10 | 47 | 9.7 | 20.9 | 0.00 | 0.00 | 0.00 | 71 | 1009.8 |
| 20260506172521 | 10 | 47 | 12.9 | 20.9 | 0.00 | 0.00 | 0.00 | 72 | 1009.8 |
| 20260506171020 | 10 | 64 | 9.7 | 20.9 | 0.00 | 0.00 | 0.00 | 70 | 1009.7 |
| 20260506165520 | 10 | 61 | 12.9 | 27.4 | 0.00 | 0.00 | 0.00 | 73 | 1009.8 |
| 20260506164020 | 10 | 47 | 12.9 | 24.1 | 0.00 | 0.00 | 0.00 | 75 | 1009.8 |
| 20260506162520 | 10 | 48 | 12.9 | 27.4 | 0.00 | 0.00 | 0.00 | 75 | 1009.9 |
| 20260506161019 | 10 | 42 | 20.9 | 32.2 | 0.00 | 0.00 | 0.00 | 75 | 1009.9 |
| 20260506155519 | 10 | 30 | 20.9 | 35.4 | 0.00 | 0.00 | 0.00 | 76 | 1009.8 |
| 20260506154018 | 8 | 32 | 24.1 | 35.4 | 0.00 | 0.00 | 0.00 | 79 | 1009.7 |
| 20260506152518 | 8 | 39 | 17.7 | 27.4 | 0.00 | 0.00 | 0.00 | 82 | 1009.5 |
| 20260506151018 | 8 | 33 | 17.7 | 27.4 | 0.00 | 0.00 | 0.00 | 81 | 1009.4 |
| 20260506145518 | 8 | 25 | 24.1 | 32.2 | 0.00 | 0.00 | 0.00 | 81 | 1009.5 |
| 20260506144017 | 10 | 30 | 20.9 | 32.2 | 0.00 | 0.00 | 0.00 | 83 | 1009.3 |
| 20260506142517 | 8 | 25 | 12.9 | 24.1 | 0.00 | 0.00 | 0.00 | 88 | 1009.3 |
| 20260506141017 | 8 | 25 | 12.9 | 24.1 | 0.00 | 0.00 | 0.00 | 88 | 1009.3 |
| 20260506135516 | 8 | 19 | 17.7 | 27.4 | 0.00 | 0.00 | 0.00 | 88 | 1009.2 |
| 20260506134017 | 8 | 19 | 17.7 | 27.4 | 0.00 | 0.00 | 0.00 | 89 | 1009.2 |
| 20260506132516 | 8 | 21 | 17.7 | 27.4 | 0.00 | 0.00 | 0.00 | 86 | 1009.2 |
| 20260506131014 | 8 | 20 | 17.7 | 24.1 | 0.00 | 0.00 | 0.00 | 87 | 1009.2 |
| 20260506125514 | 8 | 22 | 20.9 | 27.4 | 0.00 | 0.00 | 0.00 | 86 | 1009.1 |
| 20260506124014 | 8 | 23 | 17.7 | 32.2 | 0.00 | 0.00 | 0.00 | 87 | 1009.0 |
| 20260506122514 | 8 | 16 | 17.7 | 24.1 | 0.00 | 0.00 | 0.00 | 86 | 1008.9 |
| 20260506121013 | 8 | 8 | 17.7 | 24.1 | 0.00 | 0.00 | 0.00 | 86 | 1008.8 |
| 20260506115513 | 8 | 15 | 12.9 | 24.1 | 0.00 | 0.00 | 0.00 | 87 | 1008.7 |
| 20260506114013 | 8 | 14 | 12.9 | 24.1 | 0.00 | 0.00 | 0.00 | 89 | 1008.6 |
| 20260506112513 | 8 | 20 | 12.9 | 27.4 | 0.00 | 0.00 | 0.00 | 89 | 1008.5 |
| 20260506111012 | 8 | 12 | 9.7 | 20.9 | 0.00 | 0.00 | 0.00 | 93 | 1008.5 |
| 20260506105512 | 7 | 17 | 12.9 | 20.9 | 0.00 | 0.00 | 0.00 | 93 | 1008.5 |
| 20260506104011 | 7 | 21 | 12.9 | 20.9 | 0.00 | 0.00 | 0.00 | 90 | 1008.4 |
| 20260506102511 | 7 | 21 | 12.9 | 24.1 | 0.00 | 0.00 | 0.00 | 92 | 1008.3 |
| 20260506101011 | 7 | 23 | 17.7 | 27.4 | 0.00 | 0.00 | 0.00 | 92 | 1008.3 |
| 20260506095510 | 7 | 23 | 12.9 | 20.9 | 0.03 | 0.00 | 0.00 | 94 | 1008.2 |
| 20260506094010 | 7 | 26 | 12.9 | 17.7 | 0.03 | 0.00 | 0.00 | 90 | 1008.2 |
| 20260506092510 | 7 | 27 | 12.9 | 24.1 | 0.05 | 0.00 | 0.00 | 92 | 1008.1 |
| 20260506091009 | 7 | 25 | 9.7 | 20.9 | 0.08 | 0.00 | 0.00 | 92 | 1008.1 |
| 20260506085509 | 7 | 20 | 9.7 | 20.9 | 0.05 | 0.00 | 0.00 | 92 | 1008.1 |
| 20260506084008 | 6 | 18 | 12.9 | 20.9 | 0.08 | 0.00 | 0.00 | 91 | 1008.0 |
| 20260506082508 | 6 | 16 | 9.7 | 17.7 | 0.03 | 0.00 | 0.00 | 91 | 1007.9 |
| 20260506081007 | 6 | 18 | 9.7 | 17.7 | 0.03 | 0.00 | 0.00 | 91 | 1007.9 |
| 20260506072506 | 6 | 41 | 17.7 | 27.4 | 0.03 | 0.00 | 0.00 | 92 | 1007.6 |
| 20260506071005 | 6 | 32 | 20.9 | 27.4 | 0.05 | 0.00 | 0.00 | 92 | 1007.5 |
| 20260506062503 | 7 | 31 | 20.9 | 35.4 | 0.03 | 0.00 | 0.00 | 91 | 1007.3 |
| 20260506061003 | 7 | 27 | 17.7 | 24.1 | 0.03 | 0.00 | 0.00 | 94 | 1007.2 |
| 20260506051001 | 7 | 15 | 12.9 | 17.7 | 0.00 | 0.00 | 0.00 | 96 | 1007.1 |
| 20260506044000 | 7 | 1 | 9.7 | 17.7 | 0.03 | 0.00 | 0.00 | 97 | 1007.1 |
| 20260506042500 | 7 | 355 | 9.7 | 17.7 | 0.03 | 0.00 | 0.00 | 98 | 1007.1 |
| 20260506040959 | 7 | 356 | 9.7 | 12.9 | 0.13 | 0.00 | 0.00 | 98 | 1007.2 |
| 20260506035459 | 7 | 352 | 6.4 | 9.7 | 0.15 | 0.00 | 0.00 | 98 | 1007.4 |
| 20260506033959 | 7 | 351 | 6.4 | 12.9 | 0.15 | 0.00 | 0.00 | 99 | 1007.4 |
| 20260506032459 | 7 | 354 | 6.4 | 12.9 | 0.18 | 0.00 | 0.00 | 98 | 1007.5 |
| 20260506030959 | 7 | 4 | 9.7 | 17.7 | 0.13 | 0.00 | 0.00 | 98 | 1007.6 |
| 20260506025500 | 7 | 2 | 9.7 | 17.7 | 0.13 | 0.00 | 0.00 | 98 | 1007.6 |